Weather History for Avoca, PA

Change the Weather History Date:

Monday, December 31, 2012

  Actual Average Record
Temperature  
Mean Temperature 29 °F 27 °F  
Max Temperature 35 °F 34 °F 63 °F (1965)
Min Temperature 23 °F 20 °F -7 °F (1917)
Degree Days  
Heating Degree Days 36 38  
Month to date heating degree days 887 1065  
Since 1 July heating degree days 2114 2378  
Cooling Degree Days 0 0  
Month to date cooling degree days 0 0  
Year to date cooling degree days 864 580  
Moisture  
Dew Point 18 °F    
Average Humidity 65    
Maximum Humidity 74    
Minimum Humidity 56    
Precipitation  
Precipitation 0.00 in 0.07 in 1.22 in (1947)
Month to date precipitation 3.92 2.68  
Year to date precipitation 38.09 38.26  
Sea Level Pressure  
Sea Level Pressure 30.05 in    
Wind  
Wind Speed 9 mph (SW)    
Max Wind Speed 18 mph    
Max Gust Speed 24 mph    
Visibility 10 miles    
Events      
T = Trace of Precipitation, MM = Missing Value Source: NWS Daily Summary

Daily Weather History Graph

Daily Weather History Graph

Search for Another Location

Airport:

Trip Planner

Search our weather history database for the weather conditions in past years. The results will help you decide how hot, cold, wet, or windy it might be!

Date:

Astronomy

Dec. 31, 2012 Rise Set
Actual Time 7:28 AM EST 4:43 PM EST
Civil Twilight 6:57 AM EST 5:14 PM EST
Nautical Twilight 6:22 AM EST 5:49 PM EST
Astronomical Twilight 5:49 AM EST 6:23 PM EST
Moon 8:14 PM EST (12/31) 9:07 AM EST (12/31)
Length of Visible Light 10h 17m
Length of Day
9h 14m
Waning Gibbous, 90% of the Moon is Illuminated
Dec 31
Waning Gibbous
Jan 4
Last Quarter
Jan 11
New
Jan 18
First Quarter
Jan 26
Full

Hourly Weather History & Observations

Time (EST) Temp. Windchill Dew Point Humidity Pressure Visibility Wind Dir Wind Speed Gust Speed Precip Events Conditions
12:54 AM 25.0 °F - 14.0 °F 63% 30.18 in 10.0 mi Calm Calm - N/A   Overcast
1:54 AM 27.0 °F 20.5 °F 16.0 °F 63% 30.18 in 10.0 mi SW 5.8 mph - N/A   Overcast
2:54 AM 27.0 °F 20.5 °F 17.1 °F 66% 30.18 in 10.0 mi SW 5.8 mph - N/A   Mostly Cloudy
3:54 AM 25.0 °F 17.1 °F 17.1 °F 72% 30.17 in 10.0 mi SW 6.9 mph - N/A   Partly Cloudy
4:54 AM 24.1 °F 16.0 °F 16.0 °F 71% 30.16 in 10.0 mi SW 6.9 mph - N/A   Clear
5:54 AM 25.0 °F 16.3 °F 16.0 °F 69% 30.16 in 10.0 mi SW 8.1 mph - N/A   Clear
6:54 AM 24.1 °F 15.2 °F 17.1 °F 75% 30.17 in 10.0 mi WSW 8.1 mph 16.1 mph N/A   Clear
7:54 AM 24.1 °F 16.0 °F 17.1 °F 75% 30.16 in 9.0 mi WSW 6.9 mph - N/A   Clear
8:54 AM 25.0 °F 14.8 °F 17.1 °F 72% 30.16 in 8.0 mi WSW 10.4 mph - N/A   Clear
9:54 AM 26.1 °F 14.0 °F 18.0 °F 71% 30.17 in 8.0 mi WSW 15.0 mph - N/A   Clear
10:54 AM 28.0 °F 17.0 °F 18.0 °F 66% 30.14 in 10.0 mi WSW 13.8 mph 20.7 mph N/A   Clear
11:54 AM 28.9 °F 18.2 °F 18.0 °F 64% 30.09 in 10.0 mi SW 13.8 mph 23.0 mph N/A   Clear
12:54 PM 30.0 °F 19.5 °F 19.0 °F 64% 30.06 in 10.0 mi SW 13.8 mph - N/A   Clear
1:54 PM 30.9 °F 22.8 °F 19.0 °F 61% 30.01 in 10.0 mi SW 9.2 mph - N/A   Clear
2:54 PM 30.9 °F 22.2 °F 19.0 °F 61% 29.99 in 10.0 mi SW 10.4 mph - N/A   Clear
3:54 PM 30.9 °F 24.3 °F 19.0 °F 61% 29.96 in 10.0 mi WSW 6.9 mph - N/A   Partly Cloudy
4:54 PM 30.9 °F 26.2 °F 19.9 °F 64% 29.96 in 10.0 mi SW 4.6 mph - N/A   Mostly Cloudy
5:54 PM 32.0 °F 24.8 °F 19.9 °F 61% 29.94 in 10.0 mi SW 8.1 mph - N/A   Overcast
6:54 PM 33.1 °F 24.9 °F 19.9 °F 59% 29.92 in 10.0 mi WSW 10.4 mph - N/A   Overcast
7:54 PM 33.1 °F 26.1 °F 19.9 °F 59% 29.90 in 10.0 mi SW 8.1 mph - N/A   Overcast
8:54 PM 33.1 °F 24.9 °F 19.9 °F 59% 29.90 in 10.0 mi WSW 10.4 mph - N/A   Overcast
9:54 PM 34.0 °F 26.6 °F 21.9 °F 61% 29.88 in 10.0 mi WSW 9.2 mph - N/A   Overcast
10:54 PM 34.0 °F 28.0 °F 23.0 °F 64% 29.90 in 10.0 mi WSW 6.9 mph - N/A   Overcast
11:54 PM 34.0 °F 26.0 °F 25.0 °F 70% 29.89 in 10.0 mi WSW 10.4 mph - N/A   Overcast